Terminal Aerodrome Forecast
Issued by NWS Tuscon, AZ

Home | Current Version | Previous Version | Text Only | Print | Product List | Glossary On
Versions: 1 2 3 4 5 6 7 8 9 10 11 12
000
FTUS45 KTWC 042320
TAFTUS
TAF
KTUS 042320Z 0500/0524 31009KT P6SM SCT100
     FM050400 21008KT P6SM SKC
     FM050900 15006KT P6SM SKC
     FM051800 33008KT P6SM SCT100=

USA.gov is the U.S. government's official web portal to all federal, state and local government web resources and services.